Santa Maria, CA

10:04 AM PDT on March 28, 2017 (GMT -0700)
Santa Maria Public Airport / Captain G. Allan Hancock Field

Weather History for KSMX - October, 2011

Change the Weather History Date:

Wednesday, October 12, 2011

  Actual Average Record
Temperature  
Mean Temperature 79 °F 61 °F  
Max Temperature 95 °F 73 °F 104 °F (1918)
Min Temperature 62 °F 49 °F 36 °F (1981)
Degree Days  
Heating Degree Days 0 4  
Month to date heating degree days 36 48  
Since 1 July heating degree days 191 265  
Cooling Degree Days 14 1  
Month to date cooling degree days 20 12  
Year to date cooling degree days 79 94  
Growing Degree Days 30 (Base 50)    
Moisture  
Dew Point 54 °F    
Average Humidity 45    
Maximum Humidity 63    
Minimum Humidity 26    
Precipitation  
Precipitation 0.00 in 0.01 in 0.54 in (1972)
Month to date precipitation 0.75 0.13  
Year to date precipitation 11.81 10.03  
Since 1 July precipitation 0.84  
Sea Level Pressure  
Sea Level Pressure 29.90 in    
Wind  
Wind Speed 15 mph (NNE)    
Max Wind Speed 26 mph    
Max Gust Speed 47 mph    
Visibility 10 miles    
Events      
T = Trace of Precipitation, MM = Missing Value Source: NWS Daily Summary

Daily Weather History Graph

Daily Weather History Graph

Search for Another Location

Airport or City:

Trip Planner

Search our weather history database for the weather conditions in past years. The results will help you decide how hot, cold, wet, or windy it might be!

Date:

Astronomy

Oct. 12, 2011 Rise Set
Actual Time 7:05 AM PDT 6:31 PM PDT
Civil Twilight 6:39 AM PDT 6:56 PM PDT
Nautical Twilight 6:10 AM PDT 7:25 PM PDT
Astronomical Twilight 5:41 AM PDT 7:54 PM PDT
Moon 6:40 PM PDT (10/12) 7:40 AM PDT (10/12)
Length of Visible Light 12h 16m
Length of Day
11h 25m
Full, 100% of the Moon is Illuminated
Oct 12
Full
Oct 19
Last Quarter
Oct 26
New
Nov 2
First Quarter
Nov 10
Full

Hourly Weather History & Observations

Time (PDT) Temp. Heat Index Dew Point Humidity Pressure Visibility Wind Dir Wind Speed Gust Speed Precip Events Conditions
12:51 AM 73.9 °F - 55.0 °F 52% 29.95 in 10.0 mi North 16.1 mph 24.2 mph N/A   Clear
1:51 AM 75.0 °F - 53.1 °F 46% 29.94 in 10.0 mi NNE 20.7 mph 26.5 mph N/A   Clear
2:51 AM 73.9 °F - 54.0 °F 50% 29.94 in 10.0 mi NNE 17.3 mph 29.9 mph N/A   Clear
3:51 AM 73.4 °F - 53.6 °F 50% 29.94 in 10.0 mi NNE 17.3 mph 25.3 mph N/A   Clear
4:51 AM 71.1 °F - 53.1 °F 53% 29.93 in 10.0 mi North 17.3 mph 25.3 mph N/A   Clear
5:51 AM 71.1 °F - 54.0 °F 55% 29.92 in 10.0 mi NNE 21.9 mph 26.5 mph N/A   Clear
6:51 AM 72.0 °F - 54.0 °F 53% 29.93 in 10.0 mi NNE 24.2 mph 32.2 mph N/A   Clear
7:51 AM 72.0 °F - 55.0 °F 55% 29.94 in 10.0 mi NNE 16.1 mph - N/A   Clear
8:51 AM 75.0 °F - 55.0 °F 50% 29.95 in 10.0 mi NNE 15.0 mph 27.6 mph N/A   Clear
9:51 AM 78.1 °F - 55.0 °F 45% 29.95 in 10.0 mi NNE 21.9 mph 27.6 mph N/A   Clear
10:51 AM 82.0 °F 81.6 °F 55.9 °F 41% 29.94 in 10.0 mi North 20.7 mph 29.9 mph N/A   Clear
11:10 AM 82.4 °F 81.7 °F 55.4 °F 39% 29.93 in 10.0 mi NNE 13.8 mph 28.8 mph N/A   Clear
11:23 AM 84.2 °F 83.0 °F 55.4 °F 37% 29.93 in 10.0 mi NNE 13.8 mph 28.8 mph N/A   Clear
11:51 AM 86.0 °F 84.7 °F 55.9 °F 36% 29.92 in 10.0 mi North 20.7 mph 26.5 mph N/A   Clear
12:02 PM - - - N/A% - - North - - N/A   Unknown
12:51 PM 89.1 °F 87.3 °F 55.9 °F 32% 29.90 in 10.0 mi North 16.1 mph 23.0 mph N/A   Clear
1:51 PM 91.9 °F 89.5 °F 53.1 °F 27% 29.86 in 10.0 mi NNE 16.1 mph 28.8 mph N/A   Clear
2:51 PM 93.9 °F 91.4 °F 53.1 °F 25% 29.85 in 10.0 mi NNE 15.0 mph 29.9 mph N/A   Clear
3:51 PM 93.9 °F 91.4 °F 53.1 °F 25% 29.84 in 10.0 mi NNE 18.4 mph 29.9 mph N/A   Clear
4:51 PM 91.9 °F - 51.1 °F 25% 29.84 in 10.0 mi NNE 11.5 mph 28.8 mph N/A   Clear
5:51 PM 89.1 °F - 51.1 °F 27% 29.84 in 10.0 mi North 12.7 mph - N/A   Clear
6:51 PM 84.0 °F - 51.1 °F 32% 29.85 in 10.0 mi North 12.7 mph - N/A   Clear
7:51 PM 82.0 °F 81.3 °F 54.0 °F 38% 29.86 in 10.0 mi North 13.8 mph 20.7 mph N/A   Clear
8:51 PM 80.1 °F 80.0 °F 54.0 °F 40% 29.86 in 10.0 mi North 13.8 mph - N/A   Clear
9:51 PM 73.0 °F - 53.1 °F 49% 29.88 in 10.0 mi WSW 3.5 mph - N/A   Clear
10:51 PM 66.9 °F - 53.1 °F 61% 29.88 in 10.0 mi WNW 6.9 mph - N/A   Clear
11:51 PM 66.9 °F - 53.1 °F 61% 29.88 in 10.0 mi Calm Calm - N/A   Clear